Location: Croydon
(51.3762°N, 0.0982°W)
Time: 23:27:31
(UTC+00:00)

Altair - Pass Details

Date: 18 November 2019
Orbit: 1502 x 1682 km, 47.2° (Epoch: 14 December)

Event Time Altitude Azimuth Distance (km) Brightness Sun altitude
Rises 08:32:35 0° 283° (WNW) 4,651 9.5 7.8°
Reaches altitude 10° 08:35:43 10° 278° (W) 3,679 9.1 8.2°
Maximum altitude 08:44:23 47° 209° (SSW) 1,968 8.4 9.1°
Drops below altitude 10° 08:53:19 10° 140° (SE) 3,784 15.3 10.0°
Sets 08:56:36 0° 134° (SE) 4,793 12.3 10.4°
